OB1096 SPSO-SPSO

Flight info

Callsign OB1096
Flight time 1h 23m
Altitude 3000
Route DCT SCO POST ILS U/V
Aircraft C172/L-SFG/C

Departure

Time 2026-05-06 00:58
Airport Captain Renán Elías Olivera International Airport (SPSO)

Arrival

Time 2026-05-06 02:21
Airport Captain Renán Elías Olivera International Airport (SPSO)
Time Latitude Longitude Altitude Speed Heading
2026-05-06 00:57 -13.72912 -76.23613 3162 ft 102 kts 191°
2026-05-06 00:58 -13.73203 -76.23661 3179 ft 101 kts 189°
2026-05-06 00:58 -13.73899 -76.23740 3195 ft 100 kts 189°
2026-05-06 00:58 -13.74555 -76.24006 3179 ft 101 kts 209°
2026-05-06 00:59 -13.75178 -76.24342 3199 ft 101 kts 208°
2026-05-06 00:59 -13.75804 -76.24655 3210 ft 101 kts 205°
2026-05-06 00:59 -13.76442 -76.24933 3228 ft 100 kts 199°
2026-05-06 00:59 -13.77160 -76.24968 3196 ft 105 kts 169°
2026-05-06 01:00 -13.77799 -76.24671 3240 ft 102 kts 144°
2026-05-06 01:00 -13.78269 -76.24109 3218 ft 106 kts 118°
2026-05-06 01:00 -13.78474 -76.23399 3253 ft 103 kts 94°
2026-05-06 01:00 -13.78287 -76.22686 3182 ft 110 kts 49°
2026-05-06 01:01 -13.77612 -76.22365 3196 ft 101 kts 15°
2026-05-06 01:01 -13.76953 -76.22186 3195 ft 103 kts 20°
2026-05-06 01:01 -13.76242 -76.21965 3126 ft 108 kts 15°
2026-05-06 01:01 -13.75537 -76.21751 3134 ft 106 kts 18°
2026-05-06 01:02 -13.74855 -76.21492 3188 ft 101 kts 19°
2026-05-06 01:02 -13.74186 -76.21255 3185 ft 104 kts 15°
2026-05-06 01:02 -13.73489 -76.21090 3211 ft 101 kts
2026-05-06 01:02 -13.72807 -76.21292 3142 ft 107 kts 323°
2026-05-06 01:03 -13.72406 -76.21858 3150 ft 104 kts 288°
2026-05-06 01:03 -13.72387 -76.21923 3156 ft 103 kts 284°
2026-05-06 01:03 -13.72473 -76.22628 3155 ft 104 kts 241°
2026-05-06 01:04 -13.73020 -76.23097 3165 ft 103 kts 201°
2026-05-06 01:04 -13.73713 -76.23222 3192 ft 101 kts 188°
2026-05-06 01:04 -13.74421 -76.23303 3197 ft 102 kts 185°
2026-05-06 01:04 -13.74980 -76.23689 2998 ft 115 kts 257°
2026-05-06 01:05 -13.75126 -76.24425 3104 ft 96 kts 250°
2026-05-06 01:05 -13.75401 -76.25077 3070 ft 103 kts 247°
2026-05-06 01:05 -13.75422 -76.25128 3078 ft 103 kts 247°
2026-05-06 01:06 -13.75423 -76.25131 3078 ft 103 kts 246°
2026-05-06 01:07 -13.75728 -76.25790 3137 ft 100 kts 243°
2026-05-06 01:07 -13.76033 -76.26422 3185 ft 100 kts 245°
2026-05-06 01:07 -13.76250 -76.27107 3201 ft 101 kts 258°
2026-05-06 01:07 -13.76391 -76.27815 3254 ft 99 kts 254°
2026-05-06 01:08 -13.76814 -76.28394 3203 ft 107 kts 214°
2026-05-06 01:08 -13.77477 -76.28678 3279 ft 102 kts 201°
2026-05-06 01:08 -13.78140 -76.28962 3309 ft 102 kts 208°
2026-05-06 01:08 -13.78759 -76.29302 3348 ft 102 kts 205°
2026-05-06 01:09 -13.79439 -76.29544 3380 ft 102 kts 197°
2026-05-06 01:09 -13.80123 -76.29729 3415 ft 103 kts 198°
2026-05-06 01:09 -13.80749 -76.30078 3360 ft 105 kts 227°
2026-05-06 01:09 -13.81052 -76.30734 3239 ft 105 kts 263°
2026-05-06 01:10 -13.80904 -76.31454 3130 ft 103 kts 300°
2026-05-06 01:10 -13.80376 -76.31947 2952 ft 107 kts 334°
2026-05-06 01:10 -13.79649 -76.32035 2817 ft 106 kts 11°
2026-05-06 01:10 -13.78941 -76.31803 2866 ft 103 kts 16°
2026-05-06 01:11 -13.78328 -76.31467 2876 ft 107 kts 46°
2026-05-06 01:11 -13.77933 -76.30808 2916 ft 101 kts 56°
2026-05-06 01:11 -13.77591 -76.30187 2870 ft 105 kts 60°
2026-05-06 01:11 -13.77192 -76.29550 2868 ft 104 kts 56°
2026-05-06 01:12 -13.76916 -76.28884 2978 ft 102 kts 69°
2026-05-06 01:12 -13.76650 -76.28196 2969 ft 104 kts 64°
2026-05-06 01:12 -13.76350 -76.27522 2980 ft 103 kts 62°
2026-05-06 01:12 -13.75984 -76.26886 2969 ft 104 kts 61°
2026-05-06 01:13 -13.75762 -76.26174 2948 ft 105 kts 73°
2026-05-06 01:13 -13.75567 -76.25464 2984 ft 103 kts 74°
2026-05-06 01:13 -13.75362 -76.24750 2979 ft 104 kts 71°
2026-05-06 01:13 -13.75028 -76.24111 2979 ft 104 kts 55°
2026-05-06 01:14 -13.74715 -76.23516 2971 ft 105 kts 71°
2026-05-06 01:14 -13.74460 -76.22821 2998 ft 103 kts 66°
2026-05-06 01:15 -13.74169 -76.22145 3002 ft 104 kts 66°
2026-05-06 01:15 -13.73895 -76.21458 3027 ft 103 kts 69°
2026-05-06 01:15 -13.73631 -76.20780 2951 ft 104 kts 59°
2026-05-06 01:15 -13.73074 -76.20274 2811 ft 106 kts 24°
2026-05-06 01:16 -13.72387 -76.20158 2745 ft 103 kts 358°
2026-05-06 01:16 -13.71667 -76.20166 2667 ft 102 kts
2026-05-06 01:16 -13.70971 -76.19985 2547 ft 105 kts 11°
2026-05-06 01:16 -13.70268 -76.19860 2507 ft 101 kts
2026-05-06 01:17 -13.69581 -76.19683 2385 ft 105 kts 18°
2026-05-06 01:17 -13.68915 -76.19442 2393 ft 94 kts 18°
2026-05-06 01:17 -13.68292 -76.19220 2302 ft 96 kts 17°
2026-05-06 01:17 -13.67648 -76.18985 2207 ft 98 kts 20°
2026-05-06 01:18 -13.67034 -76.18700 2126 ft 97 kts 24°
2026-05-06 01:18 -13.66408 -76.18420 2016 ft 98 kts 20°
2026-05-06 01:18 -13.65785 -76.18158 1902 ft 98 kts 34°
2026-05-06 01:18 -13.65491 -76.17785 1767 ft 105 kts 64°
2026-05-06 01:19 -13.65402 -76.17083 1806 ft 96 kts 100°
2026-05-06 01:19 -13.65839 -76.16283 1712 ft 99 kts 139°
2026-05-06 01:19 -13.66427 -76.15959 1699 ft 96 kts 166°
2026-05-06 01:19 -13.67094 -76.15925 1649 ft 96 kts 197°
2026-05-06 01:20 -13.67485 -76.16168 1580 ft 98 kts 214°
2026-05-06 01:20 -13.68036 -76.16495 1533 ft 92 kts 221°
2026-05-06 01:20 -13.68550 -76.16936 1338 ft 95 kts 225°
2026-05-06 01:20 -13.68987 -76.17393 1256 ft 89 kts 218°
2026-05-06 01:21 -13.69469 -76.17761 1121 ft 87 kts 217°
2026-05-06 01:21 -13.69956 -76.18128 959 ft 86 kts 222°
2026-05-06 01:21 -13.70401 -76.18535 837 ft 87 kts 223°
2026-05-06 01:21 -13.70841 -76.18949 745 ft 86 kts 220°
2026-05-06 01:22 -13.71298 -76.19348 623 ft 85 kts 222°
2026-05-06 01:22 -13.71778 -76.19697 491 ft 83 kts 226°
2026-05-06 01:22 -13.72184 -76.20138 382 ft 86 kts 220°
2026-05-06 01:22 -13.72651 -76.20511 281 ft 84 kts 218°
2026-05-06 01:23 -13.73108 -76.20892 176 ft 83 kts 219°
2026-05-06 01:23 -13.73533 -76.21251 59 ft 74 kts 219°
2026-05-06 01:23 -13.73890 -76.21551 36 ft 62 kts 219°
2026-05-06 01:23 -13.74315 -76.21909 131 ft 87 kts 220°
2026-05-06 01:24 -13.74338 -76.21929 149 ft 86 kts 220°
2026-05-06 01:28 -13.74641 -76.22194 351 ft 85 kts 221°
2026-05-06 01:28 -13.75117 -76.22609 573 ft 88 kts 221°
2026-05-06 01:28 -13.75574 -76.23001 834 ft 89 kts 220°
2026-05-06 01:29 -13.76042 -76.23421 1089 ft 86 kts 230°
2026-05-06 01:29 -13.76215 -76.24022 1261 ft 94 kts 276°
2026-05-06 01:29 -13.76036 -76.24622 1578 ft 84 kts 290°
2026-05-06 01:29 -13.75817 -76.25219 1743 ft 91 kts 281°
2026-05-06 01:30 -13.75921 -76.25849 1984 ft 89 kts 247°
2026-05-06 01:30 -13.76091 -76.26457 2203 ft 90 kts 260°
2026-05-06 01:30 -13.76252 -76.27080 2433 ft 89 kts 250°
2026-05-06 01:30 -13.76453 -76.27688 2647 ft 91 kts 254°
2026-05-06 01:31 -13.76598 -76.28318 2878 ft 90 kts 260°
2026-05-06 01:31 -13.76694 -76.28991 2995 ft 101 kts 261°
2026-05-06 01:31 -13.76817 -76.29713 3048 ft 101 kts 259°
2026-05-06 01:31 -13.77002 -76.30400 3141 ft 96 kts 242°
2026-05-06 01:32 -13.77097 -76.30567 3159 ft 96 kts 239°
2026-05-06 01:35 -13.77229 -76.30794 3167 ft 98 kts 239°
2026-05-06 01:35 -13.77588 -76.31395 3227 ft 97 kts 239°
2026-05-06 01:36 -13.77947 -76.31985 3280 ft 98 kts 239°
2026-05-06 01:36 -13.78319 -76.32618 3258 ft 103 kts 245°
2026-05-06 01:36 -13.78564 -76.33252 3394 ft 96 kts 251°
2026-05-06 01:36 -13.78771 -76.33942 3397 ft 99 kts 254°
2026-05-06 01:37 -13.79065 -76.34567 3441 ft 100 kts 247°
2026-05-06 01:37 -13.79207 -76.35261 3453 ft 102 kts 278°
2026-05-06 01:37 -13.78861 -76.35886 3501 ft 101 kts 320°
2026-05-06 01:37 -13.78171 -76.36062 3481 ft 104 kts 349°
2026-05-06 01:38 -13.77500 -76.36214 3560 ft 101 kts 347°
2026-05-06 01:38 -13.76808 -76.36336 3620 ft 99 kts 357°
2026-05-06 01:38 -13.76106 -76.36316 3634 ft 102 kts 355°
2026-05-06 01:38 -13.75415 -76.36425 3696 ft 100 kts 353°
2026-05-06 01:39 -13.74721 -76.36514 3716 ft 102 kts 345°
2026-05-06 01:39 -13.74026 -76.36581 3744 ft 101 kts
2026-05-06 01:39 -13.73317 -76.36577 3787 ft 101 kts 356°
2026-05-06 01:39 -13.72623 -76.36610 3836 ft 101 kts 359°
2026-05-06 01:40 -13.71917 -76.36493 3851 ft 102 kts 13°
2026-05-06 01:40 -13.71233 -76.36367 3900 ft 101 kts
2026-05-06 01:40 -13.70535 -76.36217 3924 ft 102 kts 19°
2026-05-06 01:40 -13.69875 -76.35960 3977 ft 101 kts 20°
2026-05-06 01:41 -13.69185 -76.35790 3995 ft 102 kts
2026-05-06 01:41 -13.68507 -76.35634 4020 ft 104 kts 26°
2026-05-06 01:41 -13.67868 -76.35287 4079 ft 100 kts 23°
2026-05-06 01:41 -13.67208 -76.35037 4081 ft 104 kts 26°
2026-05-06 01:42 -13.66577 -76.34678 4144 ft 100 kts 27°
2026-05-06 01:42 -13.65997 -76.34238 4099 ft 106 kts 31°
2026-05-06 01:42 -13.65379 -76.33858 4145 ft 103 kts 30°
2026-05-06 01:42 -13.64791 -76.33437 4138 ft 104 kts 37°
2026-05-06 01:43 -13.64278 -76.32911 4130 ft 105 kts 46°
2026-05-06 01:43 -13.63779 -76.32378 4167 ft 103 kts 45°
2026-05-06 01:43 -13.63281 -76.31840 4172 ft 104 kts 46°
2026-05-06 01:43 -13.62782 -76.31303 4185 ft 104 kts 41°
2026-05-06 01:44 -13.62232 -76.30814 4195 ft 104 kts 39°
2026-05-06 01:44 -13.61733 -76.30285 4190 ft 105 kts 56°
2026-05-06 01:44 -13.61340 -76.29647 4218 ft 103 kts 58°
2026-05-06 01:44 -13.61059 -76.28966 4199 ft 107 kts 71°
2026-05-06 01:45 -13.60744 -76.28300 4219 ft 104 kts 59°
2026-05-06 01:45 -13.60380 -76.27645 4234 ft 105 kts 60°
2026-05-06 01:45 -13.60051 -76.26987 4251 ft 104 kts 64°
2026-05-06 01:45 -13.59760 -76.26303 4260 ft 104 kts 70°
2026-05-06 01:46 -13.59541 -76.25592 4253 ft 105 kts 77°
2026-05-06 01:46 -13.59392 -76.24853 4269 ft 104 kts 74°
2026-05-06 01:46 -13.59204 -76.24128 4265 ft 106 kts 77°
2026-05-06 01:46 -13.59138 -76.23385 4265 ft 105 kts 90°
2026-05-06 01:47 -13.59075 -76.22638 4276 ft 104 kts 78°
2026-05-06 01:47 -13.58920 -76.21907 4263 ft 105 kts 83°
2026-05-06 01:47 -13.58921 -76.21159 4262 ft 104 kts 98°
2026-05-06 01:47 -13.59016 -76.20413 4258 ft 105 kts 99°
2026-05-06 01:48 -13.59034 -76.19666 4252 ft 106 kts 89°
2026-05-06 01:48 -13.59119 -76.18925 4239 ft 107 kts 112°
2026-05-06 01:48 -13.59293 -76.18192 4227 ft 105 kts 101°
2026-05-06 01:48 -13.59435 -76.17460 4245 ft 104 kts 98°
2026-05-06 01:49 -13.59505 -76.16712 4231 ft 105 kts 103°
2026-05-06 01:49 -13.59709 -76.15991 4241 ft 105 kts 108°
2026-05-06 01:49 -13.60022 -76.15324 4203 ft 107 kts 124°
2026-05-06 01:49 -13.60344 -76.14653 4216 ft 104 kts 115°
2026-05-06 01:50 -13.60697 -76.13997 4213 ft 105 kts 121°
2026-05-06 01:50 -13.60988 -76.13315 4218 ft 104 kts 111°
2026-05-06 01:50 -13.61345 -76.12669 4211 ft 105 kts 130°
2026-05-06 01:50 -13.61831 -76.12108 4207 ft 104 kts 130°
2026-05-06 01:51 -13.62256 -76.11609 4215 ft 104 kts 135°
2026-05-06 01:51 -13.62766 -76.11092 4214 ft 105 kts 136°
2026-05-06 01:51 -13.63413 -76.10778 4095 ft 113 kts 182°
2026-05-06 01:51 -13.64089 -76.11075 4186 ft 98 kts 217°
2026-05-06 01:52 -13.64516 -76.11396 4184 ft 101 kts 218°
2026-05-06 01:52 -13.64916 -76.11713 4147 ft 105 kts 219°
2026-05-06 01:52 -13.65445 -76.12182 4213 ft 99 kts 224°
2026-05-06 01:53 -13.65938 -76.12708 4183 ft 103 kts 229°
2026-05-06 01:53 -13.66388 -76.13265 4181 ft 103 kts 232°
2026-05-06 01:53 -13.66825 -76.13867 4100 ft 109 kts 236°
2026-05-06 01:53 -13.67386 -76.14428 3985 ft 114 kts 216°
2026-05-06 01:54 -13.67987 -76.14891 4043 ft 106 kts 219°
2026-05-06 01:54 -13.68570 -76.15409 3916 ft 113 kts 224°
2026-05-06 01:54 -13.69105 -76.15961 3928 ft 107 kts 228°
2026-05-06 01:54 -13.69595 -76.16561 3838 ft 111 kts 233°
2026-05-06 01:55 -13.70045 -76.17186 3818 ft 107 kts 225°
2026-05-06 01:55 -13.70696 -76.17615 3632 ft 112 kts 219°
2026-05-06 01:55 -13.71229 -76.18158 3617 ft 108 kts 235°
2026-05-06 01:55 -13.71630 -76.18833 3543 ft 110 kts 240°
2026-05-06 01:56 -13.72090 -76.19432 3511 ft 109 kts 228°
2026-05-06 01:56 -13.72105 -76.19449 3510 ft 109 kts 228°
2026-05-06 01:56 -13.72107 -76.19450 3510 ft 109 kts 228°
2026-05-06 01:57 -13.72623 -76.20021 3487 ft 108 kts 228°
2026-05-06 01:57 -13.73131 -76.20591 3462 ft 109 kts 229°
2026-05-06 01:57 -13.73629 -76.21176 3441 ft 108 kts 230°
2026-05-06 01:57 -13.74146 -76.21734 3398 ft 109 kts 216°
2026-05-06 01:58 -13.74806 -76.22137 3356 ft 109 kts 215°
2026-05-06 01:58 -13.75400 -76.22606 3356 ft 108 kts 220°
2026-05-06 01:58 -13.75980 -76.23108 3315 ft 108 kts 221°
2026-05-06 01:58 -13.76538 -76.23622 3300 ft 108 kts 223°
2026-05-06 01:59 -13.77086 -76.24158 3271 ft 108 kts 225°
2026-05-06 01:59 -13.77614 -76.24703 3255 ft 107 kts 223°
2026-05-06 01:59 -13.78314 -76.25001 3128 ft 116 kts 182°
2026-05-06 01:59 -13.79052 -76.24731 3129 ft 112 kts 142°
2026-05-06 02:00 -13.79512 -76.24089 3094 ft 113 kts 112°
2026-05-06 02:00 -13.79605 -76.23313 3040 ft 115 kts 75°
2026-05-06 02:00 -13.79081 -76.22729 3008 ft 109 kts 20°
2026-05-06 02:00 -13.78586 -76.22546 2994 ft 110 kts 17°
2026-05-06 02:05 -13.78263 -76.22449 2983 ft 110 kts 14°
2026-05-06 02:06 -13.77536 -76.22218 2963 ft 110 kts 17°
2026-05-06 02:06 -13.76807 -76.21982 2968 ft 109 kts 13°
2026-05-06 02:06 -13.76077 -76.21813 2978 ft 109 kts 12°
2026-05-06 02:06 -13.75336 -76.21629 2983 ft 109 kts 15°
2026-05-06 02:07 -13.74613 -76.21391 2991 ft 109 kts 17°
2026-05-06 02:07 -13.73890 -76.21147 3002 ft 109 kts 16°
2026-05-06 02:07 -13.73142 -76.21027 2975 ft 111 kts 354°
2026-05-06 02:07 -13.72414 -76.21268 2990 ft 108 kts 328°
2026-05-06 02:08 -13.71877 -76.21796 2986 ft 109 kts 303°
2026-05-06 02:08 -13.71613 -76.22520 2988 ft 108 kts 277°
2026-05-06 02:08 -13.71677 -76.23279 2990 ft 108 kts 252°
2026-05-06 02:08 -13.72058 -76.23945 2994 ft 108 kts 228°
2026-05-06 02:09 -13.72674 -76.24383 2993 ft 109 kts 204°
2026-05-06 02:09 -13.73378 -76.24652 3014 ft 108 kts 197°
2026-05-06 02:09 -13.74096 -76.24880 3008 ft 109 kts 199°
2026-05-06 02:09 -13.74815 -76.25110 3026 ft 108 kts 197°
2026-05-06 02:10 -13.75548 -76.25288 3025 ft 109 kts 191°
2026-05-06 02:10 -13.76288 -76.25378 3040 ft 108 kts 184°
2026-05-06 02:10 -13.77038 -76.25395 2997 ft 112 kts 171°
2026-05-06 02:10 -13.77751 -76.25080 3012 ft 110 kts 145°
2026-05-06 02:11 -13.78235 -76.24475 2990 ft 113 kts 116°
2026-05-06 02:11 -13.78393 -76.23692 3004 ft 111 kts 87°
2026-05-06 02:11 -13.78157 -76.22939 2977 ft 113 kts 52°
2026-05-06 02:11 -13.77521 -76.22469 2962 ft 110 kts 24°
2026-05-06 02:12 -13.76834 -76.22172 2996 ft 109 kts 24°
2026-05-06 02:12 -13.76124 -76.21868 2975 ft 109 kts 15°
2026-05-06 02:12 -13.75399 -76.21649 2995 ft 109 kts 16°
2026-05-06 02:12 -13.74667 -76.21423 2999 ft 109 kts 14°
2026-05-06 02:13 -13.73929 -76.21249 3013 ft 109 kts
2026-05-06 02:13 -13.73181 -76.21162 2991 ft 106 kts
2026-05-06 02:13 -13.72439 -76.21105 2820 ft 110 kts
2026-05-06 02:13 -13.71694 -76.20902 2694 ft 108 kts 18°
2026-05-06 02:14 -13.70988 -76.20669 2601 ft 103 kts 13°
2026-05-06 02:14 -13.70350 -76.20399 2479 ft 94 kts 27°
2026-05-06 02:14 -13.69754 -76.20094 2312 ft 96 kts 23°
2026-05-06 02:14 -13.69166 -76.19805 2221 ft 92 kts 25°
2026-05-06 02:15 -13.68566 -76.19508 2079 ft 95 kts 24°
2026-05-06 02:15 -13.67990 -76.19246 2036 ft 92 kts 21°
2026-05-06 02:15 -13.67380 -76.19014 1941 ft 93 kts 19°
2026-05-06 02:15 -13.66778 -76.18797 1867 ft 93 kts 17°
2026-05-06 02:16 -13.66159 -76.18604 1801 ft 92 kts 14°
2026-05-06 02:16 -13.65555 -76.18399 1733 ft 93 kts 29°
2026-05-06 02:16 -13.65089 -76.17929 1769 ft 91 kts 59°
2026-05-06 02:16 -13.64926 -76.17302 1764 ft 96 kts 88°
2026-05-06 02:17 -13.65120 -76.16666 1790 ft 93 kts 126°
2026-05-06 02:17 -13.65611 -76.16256 1753 ft 93 kts 157°
2026-05-06 02:17 -13.66248 -76.16186 1715 ft 91 kts 192°
2026-05-06 02:17 -13.66852 -76.16362 1672 ft 91 kts 193°
2026-05-06 02:18 -13.67466 -76.16495 1639 ft 87 kts 193°
2026-05-06 02:18 -13.68001 -76.16677 1558 ft 84 kts 212°
2026-05-06 02:18 -13.68496 -76.16993 1408 ft 81 kts 219°
2026-05-06 02:18 -13.68957 -76.17350 1249 ft 83 kts 221°
2026-05-06 02:19 -13.69407 -76.17721 1170 ft 82 kts 214°
2026-05-06 02:19 -13.69897 -76.18047 1092 ft 81 kts 218°
2026-05-06 02:19 -13.70325 -76.18448 932 ft 87 kts 226°
2026-05-06 02:19 -13.70778 -76.18858 796 ft 88 kts 224°
2026-05-06 02:20 -13.71680 -76.19653 534 ft 84 kts 225°
2026-05-06 02:20 -13.72130 -76.20049 399 ft 87 kts 212°
2026-05-06 02:20 -13.72619 -76.20421 307 ft 89 kts 225°
2026-05-06 02:21 -13.72917 -76.20712 251 ft 87 kts 220°
2026-05-06 02:21 -13.73348 -76.21092 120 ft 74 kts 219°
2026-05-06 02:21 -13.73724 -76.21413 40 ft 63 kts 219°
2026-05-06 02:21 -13.73922 -76.21580 36 ft 0 kts 219°
2026-05-06 02:22 -13.73928 -76.21585 36 ft 5 kts 219°